Downstream station:
SHEF ID: HAHO2 Gaines Creek on Hwy 1 SW of Hart
STATION TYPE:
PRECIP STAGE RIV-FLOW VOLTAGE BAT-LOAD
in ft cfs volt volt
Ccp-Rev Ccp-Rev Ccp-Rev Ccp-Rev Ccp-Rev
(US/Central)
10/23 00:00 0.00 7.19 1 12.01 12.33
10/23 01:00 0.00 7.19 1 12.01 12.33
10/23 02:00 0.00 7.19 1 11.93 12.33
10/23 03:00 0.00 7.19 1 12.01 12.33
10/23 04:00 0.00 7.19 1 12.17 12.25
10/23 05:00 0.00 7.19 1 12.17 12.25
10/23 06:00 0.00 7.19 1 12.01 12.25
10/23 07:00 0.00 7.19 1 12.17 12.25
10/23 08:00 0.00 7.18 1 11.93 12.25
10/23 09:00 0.00 7.18 1 12.01 12.25
10/23 10:00 0.00 7.18 1 12.17 12.41
10/23 11:00 0.00 7.18 1 12.49 12.57
10/23 12:00 0.00 7.18 1 13.21 12.73
10/23 13:00 0.00 7.16 1 13.13 12.49
10/23 14:00 0.00 7.16 1 12.81 12.97
10/23 15:00 0.00 7.16 1 12.81 12.49
10/23 16:00 0.00 7.14 1 12.81 12.97
10/23 17:00 0.00 7.14 1 12.81 12.57
10/23 18:00 0.00 7.13 1 12.81 12.41
10/23 19:00 0.00 7.13 1 12.25 12.41
10/23 20:00 0.00 7.13 1 12.17 12.33
10/23 21:00 0.00 7.13 1 12.17 12.33
10/23 22:00 0.00 7.13 1 12.01 12.33
10/23 23:00 0.00 7.13 1 12.17 12.33